Volver al catálogo

SL-14 R/B

ActivoPO
NORAD 18340·ROCKET BODY·🇷🇺 Russia

Lanzado Sep 7, 1987 desde Plesetsk Cosmodrome

Loading…

Próximos Pases (próximas 24 horas)

TLE

ActualizadoSource: Space-Track

Época: Sep 14, 2026, 07:04 UTC

1 18340U 87074G   26257.29500998  .00000020  00000-0  59607-4 0  9999
2 18340  82.5734  20.3082 0039731   9.8314  15.8830 12.55580311788199

Sigue SL-14 R/B en tiempo real con AllMySat

Download on the App Store